"2009-04-15 00:00:30",800971,6.002,325.1,6.55,0.551,13.95,106.1139,14.92,15.8,25.78,0,110.5,13.31,15.73,287.1
"2009-04-15 00:01:00",800972,5.088,338.7,2.826,0.379,13.99,106.1173,14.93,15.81,25.85,0,110.5,13.32,15.74,300.7
"2009-04-15 00:01:30",800973,4.929,331.4,7.348,0.408,13.78,106.119,14.94,15.82,25.81,0,110.5,13.32,15.74,293.4
"2009-04-15 00:02:00",800974,5.845,324.8,2.406,0.369,13.9,106.119,14.94,15.84,25.38,0,110.5,13.32,15.74,286.8
"2009-04-15 00:02:30",800975,6.034,329.2,2.231,0.644,13.65,106.119,14.94,15.85,25.34,0,110.5,13.32,15.74,291.2
"2009-04-15 00:03:00",800976,6.5,327.6,1.309,0.195,13.54,106.1227,14.95,15.88,25.81,0,110.5,13.32,15.75,289.6
"2009-04-15 00:03:30",800977,6.62,330.3,1.183,0.281,13.58,106.139,14.99,15.89,25.96,0,110.5,13.32,15.79,292.3
"2009-04-15 00:04:00",800978,6.251,329.2,2.651,0.188,13.54,106.146,15.01,15.91,26,0,110.5,13.32,15.81,291.2
"2009-04-15 00:04:30",800979,6.084,331,2.446,0.31,13.51,106.1528,15.02,15.91,25.92,0,110.5,13.32,15.83,293.0
"2009-04-15 00:05:00",800980,6.168,333.5,2.765,0.546,13.6,106.1528,15.02,15.94,25.96,0,110.5,13.32,15.83,295.5
"2009-04-15 00:05:30",800981,5.181,336.1,4.077,0.502,13.58,106.1528,15.02,15.95,26.38,0,110.5,13.32,15.83,298.1
"2009-04-15 00:06:00",800982,4.754,338.9,3.824,0.593,13.54,106.1536,15.03,15.97,26.56,0,110.5,13.32,15.83,300.9
"2009-04-15 00:06:30",800983,5.68,338.3,2.181,0.144,13.4,106.1708,15.07,15.99,26.25,0,110.5,13.31,15.87,300.3
"2009-04-15 00:07:00",800984,5.133,346.4,5.24,0.814,13.65,106.1855,15.11,16,26.15,0,110.5,13.31,15.91,308.4
"2009-04-15 00:07:30",800985,4.683,340.5,8.57,0.665,13.58,106.186,15.11,16.02,26.11,0,110.5,13.31,15.91,302.5
"2009-04-15 00:08:00",800986,3.854,335.6,2.519,0.262,13.47,106.1842,15.1,16.04,25.67,0,110.5,13.31,15.91,297.6
"2009-04-15 00:08:30",800987,3.827,326.4,4.367,0.303,13.41,106.1785,15.09,16.04,25.41,0,110.5,13.31,15.89,288.4
"2009-04-15 00:09:00",800988,3.712,324.1,2.485,0.306,13.33,106.1831,15.1,16.07,25.41,0,110.5,13.31,15.91,286.1
"2009-04-15 00:09:30",800989,3.763,330.6,6.06,0.527,13.34,106.1975,15.14,16.09,25.49,0,110.5,13.31,15.94,292.6
"2009-04-15 00:10:00",800990,4.504,335.5,2.493,0.427,13.26,106.1947,15.13,16.11,25.57,0,110.5,13.31,15.94,297.5
"2009-04-15 00:10:30",800991,5.101,336.1,2.097,0.15,13.3,106.1938,15.13,16.13,25.54,0,110.5,13.31,15.93,298.1
"2009-04-15 00:11:00",800992,5.51,330.4,2.846,0.447,13.29,106.2024,15.15,16.15,25.58,0,110.5,13.31,15.96,292.4
"2009-04-15 00:11:30",800993,5.899,330.6,2.916,0.287,13.37,106.2198,15.2,16.17,25.91,0,110.5,13.31,16.00,292.6
"2009-04-15 00:12:00",800994,5.558,327.1,2.284,0.249,13.43,106.2213,15.2,16.19,25.86,0,110.5,13.3,16.00,289.1
"2009-04-15 00:12:30",800995,5.485,330.3,3.733,0.168,13.43,106.2189,15.19,16.21,25.7,0,110.5,13.3,16.00,292.3
"2009-04-15 00:13:00",800996,5.282,328,3.956,0.171,13.44,106.2186,15.19,16.23,25.84,0,110.5,13.3,16.00,290.0
"2009-04-15 00:13:30",800997,5.288,330,2.888,0.381,13.51,106.2358,15.24,16.24,25.45,0,110.5,13.3,16.04,292.0
"2009-04-15 00:14:00",800998,5.024,328.4,2.999,0.26,13.5,106.2476,15.27,16.26,25.43,0,110.6,13.3,16.07,290.4
"2009-04-15 00:14:30",800999,4.66,334.6,2.737,0.251,13.63,106.2515,15.28,16.26,25.26,0,110.6,13.3,16.08,296.6
"2009-04-15 00:15:00",801000,4.524,330.8,2.912,0.217,13.58,106.2521,15.28,16.28,25.14,0,110.6,13.29,16.08,292.8
"2009-04-15 00:15:30",801001,4.685,330.2,4.696,0.253,13.64,106.2521,15.28,16.29,24.89,0,110.6,13.3,16.08,292.2
"2009-04-15 00:16:00",801002,4.685,328.1,4.634,0.187,13.52,106.2521,15.28,16.31,25.1,0,110.6,13.3,16.08,290.1
"2009-04-15 00:16:30",801003,4.195,324.5,3.972,0.19,13.56,106.2521,15.28,16.31,25.1,0,110.6,13.3,16.08,286.5
"2009-04-15 00:17:00",801004,4.569,317.3,2.874,0.277,13.53,106.2521,15.28,16.31,25.31,0,110.6,13.3,16.08,279.3
"2009-04-15 00:17:30",801005,3.872,321.1,3.667,0.141,13.54,106.2521,15.28,16.32,25.21,0,110.6,13.3,16.08,283.1
"2009-04-15 00:18:00",801006,3.672,326.4,1.417,0.213,13.47,106.2521,15.28,16.3,25.05,0,110.6,13.3,16.08,288.4
"2009-04-15 00:18:30",801007,3.826,325.4,1.113,0.135,13.48,106.2521,15.28,16.31,24.82,0,110.6,13.3,16.08,287.4
"2009-04-15 00:19:00",801008,3.749,325.1,1.655,0.11,13.53,106.2521,15.28,16.33,24.74,0,110.6,13.3,16.08,287.1
"2009-04-15 00:19:30",801009,3.545,327.2,4.036,0.226,13.8,106.2521,15.28,16.33,24.89,0,110.6,13.3,16.08,289.2
"2009-04-15 00:20:00",801010,4.019,324.3,1.861,0.225,14,106.2521,15.28,16.33,24.8,0,110.6,13.3,16.08,286.3
"2009-04-15 00:20:30",801011,3.988,323.3,3.874,0.238,14.23,106.2521,15.28,16.33,25.03,0,110.6,13.3,16.08,285.3
"2009-04-15 00:21:00",801012,3.258,321,3.41,0.323,14.29,106.2521,15.28,16.33,25.15,0,110.6,13.3,16.08,283.0
"2009-04-15 00:21:30",801013,3.72,317.7,1.554,0.077,14.46,106.2521,15.28,16.33,24.7,0,110.6,13.3,16.08,279.7
"2009-04-15 00:22:00",801014,3.713,316,2.666,0.141,14.43,106.2521,15.28,16.33,24.4,0,110.6,13.3,16.08,278.0
"2009-04-15 00:22:30",801015,3.963,316.1,5.537,0.186,14.43,106.2521,15.28,16.33,24.39,0,110.6,13.3,16.08,278.1
"2009-04-15 00:23:00",801016,4.085,315,3.362,0.199,14.46,106.2521,15.28,16.34,24.7,0,110.6,13.3,16.08,277.0
"2009-04-15 00:23:30",801017,3.833,313.9,2.075,0.135,14.47,106.2521,15.28,16.32,24.86,0,110.6,13.3,16.08,275.9
"2009-04-15 00:24:00",801018,3.505,317,1.992,0.19,14.44,106.2521,15.28,16.32,25.08,0,110.6,13.3,16.08,279.0
"2009-04-15 00:24:30",801019,3.937,313.7,2.452,0.213,14.45,106.2518,15.28,16.33,25.19,0,110.6,13.3,16.08,275.7
"2009-04-15 00:25:00",801020,4.232,312.7,2.709,0.246,14.5,106.2467,15.26,16.31,25.22,0,110.6,13.3,16.07,274.7
"2009-04-15 00:25:30",801021,4.397,320.8,3.152,0.166,14.52,106.2225,15.2,16.3,25.09,0,110.6,13.3,16.01,282.8
"2009-04-15 00:26:00",801022,3.88,319.4,2.409,0.334,14.4,106.2186,15.19,16.26,25.11,0,110.6,13.3,16.00,281.4
"2009-04-15 00:26:30",801023,3.406,313.8,4.182,0.132,14.33,106.2183,15.19,16.27,25.05,0,110.6,13.3,16.00,275.8
"2009-04-15 00:27:00",801024,3.514,311,2.596,0.121,14.32,106.2183,15.19,16.25,25.04,0,110.6,13.3,16.00,273.0
"2009-04-15 00:27:30",801025,3.536,312.9,2.228,0.168,14.24,106.2183,15.19,16.24,25.2,0,110.6,13.29,16.00,274.9
"2009-04-15 00:28:00",801026,3.114,311.1,2.161,0.146,14.12,106.2132,15.18,16.24,25.13,0,110.6,13.29,15.98,273.1
"2009-04-15 00:28:30",801027,3.14,316.8,2.094,0.154,14.17,106.2003,15.15,16.22,25.05,0,110.6,13.29,15.95,278.8
"2009-04-15 00:29:00",801028,3.146,317.3,1.709,0.146,14.11,106.1845,15.11,16.21,24.94,0,110.6,13.29,15.91,279.3
"2009-04-15 00:29:30",801029,3.855,317,2.544,0.263,13.93,106.1845,15.11,16.2,24.91,0,110.6,13.29,15.91,279.0
"2009-04-15 00:30:00",801030,4.31,320.6,1.86,0.149,13.81,106.1845,15.11,16.19,25.06,0,110.6,13.29,15.91,282.6
"2009-04-15 00:30:30",801031,3.558,321.6,4.286,0.248,13.89,106.1845,15.11,16.18,25.04,0,110.6,13.29,15.91,283.6
"2009-04-15 00:31:00",801032,3.071,325.9,2.302,0.152,13.77,106.1845,15.11,16.17,25.12,0,110.6,13.29,15.91,287.9
"2009-04-15 00:31:30",801033,3.119,328.5,2.078,0.147,13.77,106.1845,15.11,16.16,25.34,0,110.6,13.29,15.91,290.5
"2009-04-15 00:32:00",801034,3.324,329.6,2.393,0.228,13.74,106.18,15.09,16.15,25.45,0,110.6,13.29,15.90,291.6
"2009-04-15 00:32:30",801035,3.037,328.3,1.858,0.124,13.71,106.1783,15.09,16.14,25.41,0,110.6,13.29,15.89,290.3
"2009-04-15 00:33:00",801036,2.848,325.8,2.245,0.09,13.78,106.1775,15.09,16.14,25.35,0,110.6,13.29,15.89,287.8
"2009-04-15 00:33:30",801037,2.956,327.3,3.336,0.108,13.65,106.1795,15.09,16.13,24.98,0,110.6,13.3,15.90,289.3
"2009-04-15 00:34:00",801038,3.112,325.5,2.159,0.131,13.59,106.1837,15.1,16.13,24.82,0,110.6,13.3,15.91,287.5
"2009-04-15 00:34:30",801039,3.19,326.3,2.187,0.066,13.59,106.1845,15.11,16.14,24.84,0,110.6,13.3,15.91,288.3
"2009-04-15 00:35:00",801040,3.189,324.4,4.039,0.09,13.58,106.1845,15.11,16.14,25.06,0,110.6,13.3,15.91,286.4
"2009-04-15 00:35:30",801041,3.11,318.1,2.258,0.077,13.83,106.1845,15.11,16.13,24.95,0,110.6,13.3,15.91,280.1
"2009-04-15 00:36:00",801042,3.246,320.8,1.492,0.145,13.45,106.1845,15.11,16.15,24.7,0,110.6,13.3,15.91,282.8
"2009-04-15 00:36:30",801043,3.217,323.3,1.929,0.062,13.48,106.1845,15.11,16.14,24.53,0,110.6,13.3,15.91,285.3
"2009-04-15 00:37:00",801044,3.355,323.8,3.322,0.141,13.57,106.1845,15.11,16.15,24.48,0,110.6,13.3,15.91,285.8
"2009-04-15 00:37:30",801045,3.298,327.5,1.617,0.071,13.77,106.1845,15.11,16.14,24.51,0,110.6,13.3,15.91,289.5
"2009-04-15 00:38:00",801046,3.454,329.9,0.989,0.139,13.71,106.191,15.12,16.16,24.47,0,110.6,13.3,15.93,291.9
"2009-04-15 00:38:30",801047,3.541,330.4,1.275,0.07,13.64,106.2073,15.16,16.17,24.74,0,110.6,13.3,15.97,292.4
"2009-04-15 00:39:00",801048,3.575,330.1,3.619,0.095,13.71,106.2121,15.18,16.17,25.25,0,110.6,13.3,15.98,292.1
"2009-04-15 00:39:30",801049,3.54,330.7,3.265,0.173,13.82,106.218,15.19,16.19,25.28,0,110.6,13.3,16.00,292.7
"2009-04-15 00:40:00",801050,3.522,341.4,3.646,0.208,13.82,106.2183,15.19,16.19,25.43,0,110.6,13.3,16.00,303.4
"2009-04-15 00:40:30",801051,3.268,343.8,2.477,0.159,14.01,106.2183,15.19,16.19,25.59,0,110.6,13.3,16.00,305.8
"2009-04-15 00:41:00",801052,3.331,337.6,5.968,0.182,14.03,106.2183,15.19,16.2,25.56,0,110.6,13.3,16.00,299.6
"2009-04-15 00:41:30",801053,3.336,326.7,3.997,0.099,14.21,106.2177,15.19,16.19,25.24,0,110.6,13.3,16.00,288.7
"2009-04-15 00:42:00",801054,3.309,324.3,3.497,0.074,14.37,106.2183,15.19,16.19,24.71,0,110.6,13.3,16.00,286.3
"2009-04-15 00:42:30",801055,3.042,327.8,2.13,0.254,14.5,106.2183,15.19,16.21,24.57,0,110.6,13.3,16.00,289.8
"2009-04-15 00:43:00",801056,2.688,324.4,1.388,0.146,14.52,106.2183,15.19,16.21,24.48,0,110.6,13.3,16.00,286.4
"2009-04-15 00:43:30",801057,3.285,324.4,2.753,0.313,14.47,106.2183,15.19,16.21,24.51,0,110.6,13.3,16.00,286.4
"2009-04-15 00:44:00",801058,3.93,334.6,2.799,0.164,14.55,106.218,15.19,16.2,25.17,0,110.6,13.3,16.00,296.6
"2009-04-15 00:44:30",801059,4.583,337.8,6.285,1.312,16.62,106.2118,15.18,16.28,25.54,0,110.6,13.25,15.98,299.8
"2009-04-15 00:45:00",801060,3.821,335,5.188,1.02,15.76,106.2062,15.16,16.33,25.67,0,110.6,13.25,15.97,297.0
"2009-04-15 00:45:30",801061,4.779,337.1,6.078,1.375,17.05,106.1868,15.11,16.3,25.71,0,110.6,13.25,15.92,299.1
"2009-04-15 00:46:00",801062,3.514,339.2,7.344,1.115,15.42,106.1845,15.11,16.34,25.52,0,110.6,13.25,15.91,301.2
"2009-04-15 00:46:30",801063,2.458,334.7,3.198,0.158,13.63,106.1845,15.11,16.16,25.05,0,110.6,13.28,15.91,296.7
"2009-04-15 00:47:00",801064,2.257,331.6,3.76,0.131,13.4,106.1792,15.09,16.15,25.03,0,110.6,13.28,15.90,293.6
"2009-04-15 00:47:30",801065,2.858,330,3.427,0.099,13.51,106.1561,15.03,16.14,24.98,0,110.6,13.28,15.84,292.0
"2009-04-15 00:48:00",801066,2.924,333.1,5.374,0.261,13.6,106.1507,15.02,16.11,25.01,0,110.6,13.28,15.82,295.1
"2009-04-15 00:48:30",801067,3.211,330.9,3.262,0.224,13.76,106.1504,15.02,16.09,24.99,0,110.6,13.28,15.82,292.9
"2009-04-15 00:49:00",801068,3.267,333.8,0.868,0.146,13.95,106.1378,14.99,16.08,24.9,0,110.6,13.28,15.79,295.8
"2009-04-15 00:49:30",801069,2.813,331.2,2.665,0.212,13.83,106.1178,14.93,16.05,24.93,0,110.6,13.29,15.74,293.2
"2009-04-15 00:50:00",801070,2.531,325.1,4.983,0.228,13.81,106.1169,14.93,16.04,25.15,0,110.5,13.29,15.74,287.1
"2009-04-15 00:50:30",801071,3.189,323.5,4.228,0.157,13.88,106.1141,14.93,16.02,25.13,0,110.5,13.3,15.73,285.5
"2009-04-15 00:51:00",801072,3.265,325.1,2.747,0.091,13.85,106.1017,14.89,15.99,25.04,0,110.5,13.3,15.70,287.1
"2009-04-15 00:51:30",801073,2.878,316,1.407,0.102,13.71,106.0859,14.85,15.97,25.22,0,110.5,13.3,15.66,278.0
"2009-04-15 00:52:00",801074,3.259,316.2,2.707,0.171,13.94,106.0831,14.85,15.95,25.23,0,110.5,13.3,15.65,278.2
"2009-04-15 00:52:30",801075,3.402,320.1,1.458,0.155,13.85,106.0831,14.85,15.94,25.21,0,110.5,13.3,15.65,282.1
"2009-04-15 00:53:00",801076,3.414,319.1,1.643,0.118,13.74,106.0786,14.83,15.93,25.4,0,110.5,13.3,15.64,281.1
"2009-04-15 00:53:30",801077,3.269,320.3,2.698,0.083,13.8,106.0733,14.82,15.9,25.49,0,110.5,13.3,15.62,282.3
"2009-04-15 00:54:00",801078,3.158,321.3,2.219,0.141,13.97,106.0612,14.79,15.91,25.61,0,110.5,13.3,15.59,283.3
"2009-04-15 00:54:30",801079,3.364,321.9,1.571,0.095,13.81,106.0522,14.77,15.89,25.52,0,110.5,13.3,15.57,283.9
"2009-04-15 00:55:00",801080,3.294,325,1.584,0.088,13.94,106.0496,14.76,15.86,25.44,0,110.5,13.3,15.56,287.0
"2009-04-15 00:55:30",801081,3.333,325.6,1.142,0.077,13.96,106.0493,14.76,15.87,25.38,0,110.5,13.3,15.56,287.6
"2009-04-15 00:56:00",801082,3.274,327.3,0.641,0.096,13.92,106.0493,14.76,15.86,25.36,0,110.5,13.3,15.56,289.3
"2009-04-15 00:56:30",801083,3.065,326.3,0.771,0.045,13.75,106.0493,14.76,15.85,25.2,0,110.5,13.3,15.56,288.3
"2009-04-15 00:57:00",801084,3.004,324.9,0.698,0.042,13.92,106.0493,14.76,15.85,25.1,0,110.5,13.3,15.56,286.9
"2009-04-15 00:57:30",801085,3.102,327.4,0.918,0.104,13.97,106.0493,14.76,15.83,24.99,0,110.5,13.3,15.56,289.4
"2009-04-15 00:58:00",801086,3.272,329.2,1.361,0.197,14.01,106.0493,14.76,15.84,24.92,0,110.5,13.3,15.56,291.2
"2009-04-15 00:58:30",801087,3.534,330.2,1.556,0.123,14.02,106.0493,14.76,15.84,24.94,0,110.5,13.3,15.56,292.2
"2009-04-15 00:59:00",801088,3.581,326.5,1.636,0.084,14.09,106.0496,14.76,15.85,25.02,0,110.5,13.3,15.56,288.5
"2009-04-15 00:59:30",801089,3.72,327.2,1.219,0.077,14,106.0513,14.76,15.84,25.13,0,110.5,13.3,15.57,289.2
"2009-04-15 01:00:00",801090,3.741,325.2,1.578,0.154,14.03,106.0522,14.77,15.85,25.2,0,110.5,13.3,15.57,287.2
"2009-04-15 01:00:30",801091,3.544,325.1,1.685,0.093,14.09,106.0575,14.78,15.84,25.25,0,110.5,13.3,15.58,287.1
"2009-04-15 01:01:00",801092,3.412,323.7,1.218,0.066,14.07,106.0637,14.8,15.85,25.28,0,110.5,13.3,15.60,285.7
"2009-04-15 01:01:30",801093,3.378,323.6,0.954,0.072,14.09,106.0699,14.81,15.84,25.29,0,110.5,13.3,15.62,285.6
"2009-04-15 01:02:00",801094,3.549,324.5,2.102,0.076,14.17,106.0741,14.82,15.85,25.27,0,110.5,13.3,15.63,286.5
"2009-04-15 01:02:30",801095,3.434,328.1,1.31,0.077,14.16,106.0747,14.82,15.85,25.25,0,110.5,13.3,15.63,290.1
"2009-04-15 01:03:00",801096,3.54,328.1,0.922,0.122,14.1,106.075,14.82,15.86,25.2,0,110.5,13.3,15.63,290.1
"2009-04-15 01:03:30",801097,3.462,326.9,1.378,0.11,14.13,106.0761,14.83,15.86,25.29,0,110.5,13.3,15.63,288.9
"2009-04-15 01:04:00",801098,3.485,329.2,3.618,0.14,14.02,106.0806,14.84,15.86,25.33,0,110.5,13.29,15.64,291.2
"2009-04-15 01:04:30",801099,3.32,328.2,1.811,0.078,14.08,106.0826,14.84,15.87,25.36,0,110.5,13.3,15.65,290.2
"2009-04-15 01:05:00",801100,3.504,330.5,1.51,0.05,14.09,106.0831,14.85,15.86,25.33,0,110.5,13.29,15.65,292.5
"2009-04-15 01:05:30",801101,3.398,328.8,1.053,0.06,14.13,106.0831,14.85,15.86,25.33,0,110.5,13.29,15.65,290.8
"2009-04-15 01:06:00",801102,3.468,332.3,2.801,0.129,14.09,106.0831,14.85,15.86,25.3,0,110.5,13.3,15.65,294.3
"2009-04-15 01:06:30",801103,3.487,332.6,1.593,0.108,14.03,106.0831,14.85,15.88,25.23,0,110.5,13.3,15.65,294.6
"2009-04-15 01:07:00",801104,3.917,332,2.102,0.143,14.15,106.0831,14.85,15.86,25.21,0,110.5,13.3,15.65,294.0
"2009-04-15 01:07:30",801105,3.938,329.9,0.801,0.091,14.24,106.0831,14.85,15.87,25.15,0,110.5,13.3,15.65,291.9
"2009-04-15 01:08:00",801106,3.873,331.3,1.079,0.116,14.29,106.0831,14.85,15.87,25.17,0,110.5,13.3,15.65,293.3
"2009-04-15 01:08:30",801107,3.609,327.3,1.501,0.101,14.32,106.0831,14.85,15.86,25.13,0,110.5,13.3,15.65,289.3
"2009-04-15 01:09:00",801108,3.735,329.7,1.548,0.051,14.32,106.0831,14.85,15.86,25.12,0,110.5,13.3,15.65,291.7
"2009-04-15 01:09:30",801109,3.841,329.2,0.871,0.098,14.46,106.0831,14.85,15.87,25.11,0,110.5,13.3,15.65,291.2
"2009-04-15 01:10:00",801110,3.728,328.8,1.305,0.13,14.56,106.0823,14.84,15.87,25.07,0,110.5,13.3,15.65,290.8
"2009-04-15 01:10:30",801111,3.494,326.7,0.944,0.064,14.67,106.08,14.84,15.92,25.15,0,110.5,13.3,15.64,288.7
"2009-04-15 01:11:00",801112,4.409,333.6,7.084,1.339,16.73,106.0755,14.83,15.96,25.16,0,110.6,13.26,15.63,295.6
"2009-04-15 01:11:30",801113,3.605,328.7,5.564,0.869,15.02,106.0713,14.82,16.07,25.29,0,110.5,13.26,15.62,290.7
"2009-04-15 01:12:00",801114,4.387,332.7,6.778,1.349,16.27,106.0595,14.79,15.92,25.12,0,110.5,13.26,15.59,294.7
"2009-04-15 01:12:30",801115,3.547,329.8,4.543,0.885,14.31,106.0505,14.76,15.89,25.08,0,110.5,13.26,15.57,291.8
"2009-04-15 01:13:00",801116,3.859,333.1,5.936,1.236,14.41,106.0493,14.76,15.9,25.08,0,110.5,13.26,15.56,295.1
"2009-04-15 01:13:30",801117,4.59,334.7,6.498,1.402,15.66,106.0493,14.76,15.94,25.11,0,110.5,13.26,15.56,296.7
"2009-04-15 01:14:00",801118,4.329,335.6,6.938,1.301,15.15,106.0493,14.76,15.99,25.18,0,110.5,13.26,15.56,297.6
"2009-04-15 01:14:30",801119,3.191,328.9,0.796,0.485,12.61,106.0451,14.75,15.83,25.05,0,110.5,13.26,15.55,290.9
"2009-04-15 01:15:00",801120,2.929,328.1,1.732,0.113,12.43,106.0356,14.72,15.79,25.04,0,110.5,13.3,15.53,290.1
"2009-04-15 01:15:30",801121,2.938,328,1.24,0.098,12.5,106.0283,14.71,15.78,25.05,0,110.5,13.3,15.51,290.0
"2009-04-15 01:16:00",801122,3.11,329.7,0.635,0.043,12.67,106.0182,14.68,15.77,25.05,0,110.5,13.3,15.48,291.7
"2009-04-15 01:16:30",801123,3.116,329.2,0.743,0.033,12.98,106.0203,14.68,15.75,25.05,0,110.5,13.3,15.49,291.2
"2009-04-15 01:17:00",801124,3.155,325.4,1.396,0.073,13.4,106.0204,14.69,15.74,25.07,0,110.5,13.3,15.49,287.4
"2009-04-15 01:17:30",801125,3.095,328.8,1.203,0.06,13.51,106.0092,14.66,15.72,25.11,0,110.5,13.3,15.46,290.8
"2009-04-15 01:18:00",801126,3.044,328.6,0.87,0.044,13.71,105.9907,14.61,15.72,25.12,0,110.5,13.3,15.41,290.6
"2009-04-15 01:18:30",801127,2.948,329.3,0.811,0.048,13.97,105.991,14.61,15.71,25.13,0,110.5,13.3,15.41,291.3
"2009-04-15 01:19:00",801128,4.054,337,7.594,1.391,16.31,105.9923,14.61,15.75,25.24,0,110.5,13.26,15.42,299.0
"2009-04-15 01:19:30",801129,3.596,337.7,7.272,1.223,15.94,105.9818,14.59,15.83,25.39,0,110.5,13.26,15.39,299.7
"2009-04-15 01:20:00",801130,3.794,334.2,6.52,1.311,16.06,105.9721,14.56,15.8,25.39,0,110.5,13.26,15.36,296.2
"2009-04-15 01:20:30",801131,2.65,329.3,2.352,0.152,13.82,105.9742,14.57,15.71,25.32,0,110.5,13.3,15.37,291.3
"2009-04-15 01:21:00",801132,2.681,333,3.934,0.104,13.44,105.9676,14.55,15.6,25.19,0,110.5,13.3,15.35,295.0
"2009-04-15 01:21:30",801133,2.594,335.4,1.567,0.062,13.41,105.9493,14.5,15.59,25.25,0,110.5,13.26,15.31,297.4
"2009-04-15 01:22:00",801134,3.754,342.2,6.102,1.36,15.65,105.9497,14.5,15.7,25.48,0,110.5,13.26,15.31,304.2
"2009-04-15 01:22:30",801135,2.311,333.1,1.626,0.309,13.13,105.9415,14.48,15.54,25.4,0,110.5,13.26,15.29,295.1
"2009-04-15 01:23:00",801136,2.445,334.2,4.414,0.75,13.41,105.9178,14.42,15.67,25.62,0,110.5,13.27,15.22,296.2
"2009-04-15 01:23:30",801137,3.494,338.6,5.558,1.41,14.52,105.9162,14.42,15.5,25.57,0,110.5,13.27,15.22,300.6
"2009-04-15 01:24:00",801138,2.165,336.4,2.503,0.098,12.6,105.9063,14.39,15.46,25.61,0,110.5,13.31,15.20,298.4
"2009-04-15 01:24:30",801139,2.125,329.5,2.814,0.17,12.58,105.8826,14.33,15.43,25.57,0,110.5,13.31,15.13,291.5
"2009-04-15 01:25:00",801140,2.033,332.6,2.213,0.135,12.76,105.8823,14.33,15.41,25.56,0,110.5,13.31,15.13,294.6
"2009-04-15 01:25:30",801141,2.118,331.1,2.153,0.064,13.02,105.8736,14.31,15.39,25.69,0,110.5,13.31,15.11,293.1
"2009-04-15 01:26:00",801142,2.079,331,3.49,0.076,13.33,105.8542,14.26,15.37,25.73,0,110.5,13.31,15.06,293.0
"2009-04-15 01:26:30",801143,2.313,321.8,5.322,0.238,13.61,105.8483,14.24,15.35,25.76,0,110.5,13.31,15.05,283.8
"2009-04-15 01:27:00",801144,2.211,313.1,2.484,0.052,13.88,105.8378,14.22,15.37,25.76,0,110.5,13.31,15.02,275.1
"2009-04-15 01:27:30",801145,3.764,319.3,7.699,1.419,16.56,105.8167,14.16,15.37,25.77,0,110.5,13.28,14.96,281.3
"2009-04-15 01:28:00",801146,3.196,314.8,7.213,1.329,15.81,105.8145,14.16,15.45,25.9,0,110.4,13.28,14.96,276.8
"2009-04-15 01:28:30",801147,2.491,310.8,3.178,0.763,13.8,105.8043,14.13,15.25,25.75,0,110.5,13.28,14.93,272.8
"2009-04-15 01:29:00",801148,2.078,314.7,1.109,0.073,13.22,105.7821,14.07,15.22,25.79,0,110.5,13.32,14.88,276.7
"2009-04-15 01:29:30",801149,2.005,312.1,1.417,0.141,13.26,105.7809,14.07,15.19,25.79,0,110.5,13.32,14.87,274.1
"2009-04-15 01:30:00",801150,2.166,311.6,2.314,0.169,13.35,105.7725,14.05,15.15,25.82,0,110.4,13.32,14.85,273.6
"2009-04-15 01:30:30",801151,2.341,306,4.987,0.974,14.18,105.7483,13.99,15.13,25.9,0,110.5,13.28,14.79,268.0
"2009-04-15 01:31:00",801152,2.345,304.8,3.195,0.903,13.89,105.7471,13.99,15.2,26.11,0,110.4,13.29,14.79,266.8
"2009-04-15 01:31:30",801153,3.456,312.6,6.569,1.358,15.9,105.7399,13.97,15.17,26.11,0,110.4,13.29,14.77,274.6
"2009-04-15 01:32:00",801154,2.956,311.2,6.277,1.265,14.89,105.7172,13.91,15.25,26.27,0,110.4,13.29,14.71,273.2
"2009-04-15 01:32:30",801155,2.75,310.4,4.608,1.051,13.74,105.7196,13.91,15.09,26.11,0,110.4,13.29,14.72,272.4
"2009-04-15 01:33:00",801156,1.999,310,1.043,0.087,12.82,105.7096,13.89,15.05,26.17,0,110.4,13.33,14.69,272.0
"2009-04-15 01:33:30",801157,2.103,310.5,1.457,0.109,12.75,105.6884,13.83,14.99,26.22,0,110.4,13.33,14.64,272.5
"2009-04-15 01:34:00",801158,2.131,309.9,0.725,0.066,12.98,105.6914,13.84,14.96,26.2,0,110.4,13.33,14.64,271.9
"2009-04-15 01:34:30",801159,2.171,313,1.315,0.048,13.29,105.6785,13.81,14.95,26.21,0,110.4,13.32,14.61,275.0
"2009-04-15 01:35:00",801160,2.391,316.7,3.758,0.832,13.76,105.6689,13.78,14.91,26.22,0,110.4,13.29,14.59,278.7
"2009-04-15 01:35:30",801161,2.784,320.3,6.104,1.154,15.18,105.6737,13.8,15.05,26.36,0,110.4,13.29,14.60,282.3
"2009-04-15 01:36:00",801162,2.899,320,5.55,1.198,15.04,105.6653,13.78,15.01,26.28,0,110.4,13.29,14.58,282.0
"2009-04-15 01:36:30",801163,3.124,319.5,6.408,1.291,14.66,105.6464,13.73,14.89,26.16,0,110.4,13.28,14.53,281.5
"2009-04-15 01:37:00",801164,2.298,315.2,4.599,0.69,13.83,105.647,13.73,14.9,26.15,0,110.4,13.29,14.53,277.2
"2009-04-15 01:37:30",801165,2.091,313,0.76,0.058,13.19,105.6434,13.72,14.79,26.13,0,110.4,13.32,14.52,275.0
"2009-04-15 01:38:00",801166,2.076,314.1,1.056,0.035,13.22,105.6321,13.69,14.76,26.23,0,110.4,13.32,14.49,276.1
"2009-04-15 01:38:30",801167,2.095,314.4,1.251,0.056,13.34,105.6163,13.65,14.74,26.27,0,110.4,13.32,14.45,276.4
"2009-04-15 01:39:00",801168,2.095,315.4,0.831,0.048,13.44,105.6138,13.64,14.72,26.32,0,110.4,13.33,14.44,277.4
"2009-04-15 01:39:30",801169,3.256,322.9,7.757,1.356,16.06,105.6113,13.64,14.8,26.45,0,110.4,13.29,14.44,284.9
"2009-04-15 01:40:00",801170,2.134,319.8,4.523,0.816,14.54,105.5994,13.61,14.84,26.55,0,110.4,13.29,14.41,281.8
"2009-04-15 01:40:30",801171,1.997,317,4.201,0.718,13.95,105.5803,13.56,14.66,26.4,0,110.4,13.29,14.36,279.0
"2009-04-15 01:41:00",801172,1.699,314.4,0.285,0.029,13.35,105.58,13.56,14.64,26.43,0,110.4,13.33,14.36,276.4
"2009-04-15 01:41:30",801173,3.006,321.5,6.937,1.348,15.98,105.5766,13.55,14.81,26.66,0,110.4,13.3,14.35,283.5
"2009-04-15 01:42:00",801174,1.55,314.5,0.7,0.037,13.3,105.5617,13.51,14.64,26.58,0,110.4,13.34,14.31,276.5
"2009-04-15 01:42:30",801175,1.579,315.5,0.984,0.031,12.95,105.5478,13.47,14.57,26.57,0,110.4,13.34,14.27,277.5
"2009-04-15 01:43:00",801176,1.524,315.6,1.101,0.03,12.89,105.5462,13.47,14.55,26.63,0,110.4,13.34,14.27,277.6
"2009-04-15 01:43:30",801177,1.528,314.2,0.576,0.038,13.18,105.5419,13.46,14.53,26.67,0,110.4,13.34,14.26,276.2
"2009-04-15 01:44:00",801178,1.475,311.8,0.808,0.034,13.61,105.5197,13.4,14.53,26.78,0,110.4,13.34,14.20,273.8
"2009-04-15 01:44:30",801179,2.477,314.9,6.994,1.363,15.79,105.5123,13.38,14.63,26.97,0,110.4,13.3,14.18,276.9
"2009-04-15 01:45:00",801180,1.745,310.1,4.753,1.023,14.54,105.5144,13.39,14.62,27.12,0,110.4,13.3,14.19,272.1
"2009-04-15 01:45:30",801181,2.19,311.7,6.474,1.274,14.7,105.5123,13.38,14.46,27.07,0,110.4,13.3,14.18,273.7
"2009-04-15 01:46:00",801182,1.317,312.3,1.9,0.032,12.86,105.5014,13.36,14.43,27.1,0,110.4,13.34,14.15,274.3
"2009-04-15 01:46:30",801183,1.249,315.1,0.803,0.036,12.75,105.49,13.33,14.41,27.21,0,110.4,13.34,14.13,277.1
"2009-04-15 01:47:00",801184,1.256,316.5,0.944,0.041,12.84,105.4925,13.33,14.39,27.24,0,110.4,13.34,14.13,278.5
"2009-04-15 01:47:30",801185,1.328,319.6,1.744,0.025,13.12,105.4964,13.34,14.38,27.26,0,110.4,13.34,14.14,281.6
"2009-04-15 01:48:00",801186,1.335,320.3,0.997,0.015,13.3,105.4899,13.33,14.34,27.25,0,110.4,13.34,14.13,282.3
"2009-04-15 01:48:30",801187,1.425,319.6,1.188,0.026,13.54,105.4758,13.29,14.34,27.28,0,110.3,13.34,14.09,281.6